Sitka, AK

8:36 AM AKDT on May 22, 2018 (GMT -0800)
Sitka Rocky Gutierrez

Weather History for PASI - May, 2014

Change the Weather History Date:

Sunday, May 4, 2014

  Actual Average Record
Temperature  
Mean Temperature 49 °F 46 °F  
Max Temperature 60 °F 51 °F 69 °F (1956)
Min Temperature 41 °F 40 °F 30 °F (2002)
Degree Days  
Heating Degree Days 16 19  
Month to date heating degree days 79  
Moisture  
Dew Point 36 °F    
Average Humidity 62    
Maximum Humidity 86    
Minimum Humidity 44    
Precipitation  
Precipitation 0.00 in 0.13 in 1.24 in (1958)
Month to date precipitation 0.54  
Year to date precipitation 25.91  
Sea Level Pressure  
Sea Level Pressure 29.97 in    
Wind  
Wind Speed 3 mph (SW)    
Max Wind Speed 10 mph    
Max Gust Speed -    
Visibility 10 miles    
Events      
T = Trace of Precipitation, MM = Missing Value Source: NWS Daily Summary

Daily Weather History Graph

Daily Weather History Graph

Search for Another Location

Airport or City:

Astronomy

May. 04, 2014 Rise Set
Actual Time 5:05 AM AKDT 8:52 PM AKDT
Civil Twilight 4:18 AM AKDT 9:40 PM AKDT
Nautical Twilight 3:09 AM AKDT 10:50 PM AKDT
Astronomical Twilight 1:30 AM AKDT 12:25 AM AKDT
Moon 9:33 AM AKDT (5/4) 1:06 AM AKDT (5/4)
Length of Visible Light 17h 22m
Length of Day
15h 46m
Waxing Crescent, 29% of the Moon is Illuminated
May 4
Waxing Crescent
May 6
First Quarter
May 14
Full
May 21
Last Quarter
May 28
New

Hourly Weather History & Observations

Time (AKDT) Temp. Windchill Dew Point Humidity Pressure Visibility Wind Dir Wind Speed Gust Speed Precip Events Conditions
12:53 AM 46.0 °F 43.9 °F 28.0 °F 50% 30.00 in 10.0 mi ESE 4.6 mph - N/A   Clear
1:53 AM 46.0 °F - 25.0 °F 44% 30.00 in 10.0 mi Calm Calm - N/A   Clear
2:53 AM 46.0 °F - 36.0 °F 68% 30.00 in 10.0 mi Calm Calm - N/A   Clear
3:53 AM 44.1 °F - 30.9 °F 60% 29.99 in 10.0 mi Calm Calm - N/A   Clear
4:53 AM 41.0 °F - 30.9 °F 67% 29.99 in 10.0 mi Calm Calm - N/A   Clear
5:53 AM 42.1 °F - 30.9 °F 65% 29.99 in 10.0 mi Calm Calm - N/A   Clear
6:53 AM 45.0 °F - 34.0 °F 65% 29.99 in 10.0 mi Calm Calm - N/A   Scattered Clouds
7:53 AM 46.9 °F - 32.0 °F 56% 29.99 in 10.0 mi Calm Calm - N/A   Clear
8:53 AM 46.9 °F - 37.0 °F 68% 29.99 in 10.0 mi WSW 3.5 mph - N/A   Clear
10:30 AM 53.6 °F - 37.4 °F 54% 29.98 in 10.0 mi Calm Calm - N/A   Clear
10:53 AM 51.1 °F - 37.0 °F 59% 29.98 in 10.0 mi SW 3.5 mph - N/A   Clear
11:53 AM 53.1 °F - 35.1 °F 50% 29.98 in 10.0 mi SW 9.2 mph - N/A   Clear
12:53 PM 52.0 °F - 37.9 °F 59% 29.97 in 10.0 mi SSW 4.6 mph - N/A   Clear
1:53 PM 53.1 °F - 41.0 °F 64% 29.96 in 10.0 mi Calm Calm - N/A   Clear
2:53 PM 57.0 °F - 37.9 °F 49% 29.96 in 10.0 mi South 5.8 mph - N/A   Clear
3:53 PM 57.9 °F - 36.0 °F 44% 29.94 in 10.0 mi SSW 4.6 mph - N/A   Clear
4:53 PM 57.9 °F - 37.0 °F 46% 29.94 in 10.0 mi South 9.2 mph - N/A   Clear
5:53 PM 55.0 °F - 37.0 °F 51% 29.93 in 10.0 mi SSW 10.4 mph - N/A   Clear
6:53 PM 54.0 °F - 39.0 °F 57% 29.93 in 10.0 mi SW 8.1 mph - N/A   Clear
7:53 PM 51.1 °F - 44.1 °F 77% 29.93 in 10.0 mi SW 8.1 mph - N/A   Clear
8:53 PM 50.0 °F - 43.0 °F 77% 29.94 in 10.0 mi WSW 5.8 mph - N/A   Clear
9:53 PM 48.0 °F - 43.0 °F 83% 29.94 in 10.0 mi WNW 8.1 mph - N/A   Clear
10:53 PM 46.9 °F - 43.0 °F 86% 29.96 in 10.0 mi NW 10.4 mph - N/A   Clear
11:53 PM 46.0 °F 43.9 °F 42.1 °F 86% 29.96 in 10.0 mi NNW 4.6 mph - N/A   Clear